Weather History for Osceola Municipal, IA

Change the Weather History Date:

Saturday, November 10, 2012

  Actual Average (KLWD) Record (KLWD)
Temperature  
Mean Temperature 68 °F 42 °F  
Max Temperature 76 °F 52 °F 73 °F (2012)
Min Temperature 60 °F 33 °F 16 °F (1979)
Degree Days  
Heating Degree Days 0 22  
Month to date heating degree days 203  
Since 1 July heating degree days 687  
Cooling Degree Days 3 0  
Month to date cooling degree days 0  
Year to date cooling degree days 946  
Growing Degree Days 18 (Base 50)    
Moisture  
Dew Point 54 °F    
Average Humidity 62    
Maximum Humidity 82    
Minimum Humidity 48    
Precipitation  
Precipitation 0.00 in 0.08 in 1.05 in (1968)
Month to date precipitation 1.00  
Sea Level Pressure  
Sea Level Pressure 29.69 in    
Wind  
Wind Speed 18 mph (South)    
Max Wind Speed 25 mph    
Max Gust Speed 38 mph    
Visibility 9 miles    
Events      
T = Trace of Precipitation, MM = Missing Value Source: NWS Daily Summary

Daily Weather History Graph

Daily Weather History Graph

Search for Another Location

Airport:

Trip Planner

Search our weather history database for the weather conditions in past years. The results will help you decide how hot, cold, wet, or windy it might be!

Date:

Astronomy

Nov. 10, 2012 Rise Set
Actual Time 6:57 AM CST 4:59 PM CST
Civil Twilight 6:27 AM CST 5:29 PM CST
Nautical Twilight 5:54 AM CST 6:02 PM CST
Astronomical Twilight 5:22 AM CST 6:34 PM CST
Moon 3:01 AM CST (11/10) 2:48 PM CST (11/10)
Length of Visible Light 11h 01m
Length of Day
10h 02m
Waning Crescent, 14% of the Moon is Illuminated
Nov 10
Waning Crescent
Nov 13
New
Nov 20
First Quarter
Nov 28
Full
Dec 6
Last Quarter

Hourly Weather History & Observations

Time (CST) Temp. Dew Point Humidity Pressure Visibility Wind Dir Wind Speed Gust Speed Precip Events Conditions
12:15 AM 63.0 °F 55.9 °F 78% 29.77 in 10.0 mi SSE 12.7 mph - N/A   Clear
12:41 AM 62.6 °F 55.4 °F 77% 29.76 in 10.0 mi SSE 13.8 mph - N/A   Clear
12:58 AM 62.6 °F 55.4 °F 77% 29.75 in 10.0 mi SSE 12.7 mph 19.6 mph N/A   Clear
1:18 AM 62.6 °F 55.4 °F 77% 29.74 in 10.0 mi SSE 12.7 mph - N/A   Clear
1:38 AM 62.6 °F 55.4 °F 77% 29.74 in 10.0 mi South 15.0 mph 20.7 mph N/A   Clear
1:58 AM 62.6 °F 55.4 °F 77% 29.74 in 10.0 mi SSE 16.1 mph 21.9 mph N/A   Clear
2:18 AM 62.6 °F 55.4 °F 77% 29.74 in 10.0 mi SSE 16.1 mph 20.7 mph N/A   Clear
2:38 AM 62.6 °F 55.4 °F 77% 29.74 in 10.0 mi South 16.1 mph 23.0 mph N/A   Clear
2:59 AM 62.6 °F 55.4 °F 77% 29.73 in 10.0 mi South 15.0 mph 23.0 mph N/A   Clear
3:19 AM 62.6 °F 55.4 °F 77% 29.73 in 10.0 mi South 17.3 mph 23.0 mph N/A   Clear
3:40 AM 60.8 °F 55.4 °F 82% 29.72 in 10.0 mi South 16.1 mph 21.9 mph N/A   Clear
4:00 AM 60.8 °F 55.4 °F 82% 29.71 in 10.0 mi South 16.1 mph 21.9 mph N/A   Clear
4:15 AM 61.3 °F 55.4 °F 81% 29.71 in 10.0 mi South 18.4 mph 21.9 mph N/A   Clear
4:35 AM 61.3 °F 55.4 °F 81% 29.71 in 10.0 mi South 17.3 mph 24.2 mph N/A   Clear
4:55 AM 61.7 °F 55.4 °F 80% 29.71 in 10.0 mi South 16.1 mph 21.9 mph N/A   Scattered Clouds
5:15 AM 61.7 °F 55.4 °F 80% 29.71 in 10.0 mi South 15.0 mph 21.9 mph N/A   Scattered Clouds
5:35 AM 61.2 °F 55.2 °F 81% 29.70 in 10.0 mi South 17.3 mph - N/A   Clear
5:55 AM 61.2 °F 55.2 °F 81% 29.70 in 10.0 mi South 17.3 mph 23.0 mph N/A   Clear
6:35 AM 61.7 °F 55.4 °F 80% 29.70 in 10.0 mi South 16.1 mph 23.0 mph N/A   Clear
6:55 AM 62.1 °F 55.4 °F 79% 29.71 in 10.0 mi South 16.1 mph 21.9 mph N/A   Clear
7:15 AM 62.1 °F 55.2 °F 78% 29.71 in 10.0 mi South 17.3 mph 21.9 mph N/A   Clear
7:35 AM 62.6 °F 55.4 °F 77% 29.72 in 10.0 mi South 17.3 mph 21.9 mph N/A   Clear
7:55 AM 63.7 °F 55.4 °F 74% 29.72 in 7.0 mi South 16.1 mph 26.5 mph N/A   Clear
8:15 AM 64.6 °F 55.6 °F 73% 29.72 in 7.0 mi South 19.6 mph 24.2 mph N/A   Clear
8:35 AM 66.0 °F 55.6 °F 69% 29.72 in 7.0 mi South 18.4 mph 25.3 mph N/A   Clear
8:55 AM 67.1 °F 55.6 °F 66% 29.72 in 7.0 mi South 19.6 mph 29.9 mph N/A   Clear
9:15 AM 68.0 °F 55.6 °F 64% 29.71 in 7.0 mi South 21.9 mph 32.2 mph N/A   Clear
9:35 AM 69.3 °F 55.8 °F 62% 29.71 in 7.0 mi South 23.0 mph 31.1 mph N/A   Clear
9:55 AM 70.5 °F 55.8 °F 59% 29.71 in 10.0 mi South 20.7 mph 31.1 mph N/A   Clear
10:15 AM 71.6 °F 55.6 °F 57% 29.71 in 7.0 mi South 24.2 mph 32.2 mph N/A   Clear
10:35 AM 72.7 °F 55.4 °F 55% 29.71 in 10.0 mi South 24.2 mph 31.1 mph N/A   Clear
10:55 AM 74.3 °F 55.8 °F 52% 29.71 in 10.0 mi South 19.6 mph 27.6 mph N/A   Clear
11:15 AM 74.7 °F 55.4 °F 51% 29.70 in 10.0 mi South 21.9 mph 28.8 mph N/A   Clear
11:35 AM 75.2 °F 54.9 °F 49% 29.69 in 7.0 mi South 20.7 mph 29.9 mph N/A   Clear
11:55 AM 75.7 °F 55.0 °F 49% 29.69 in 7.0 mi South 23.0 mph 31.1 mph N/A   Clear
12:15 PM 75.4 °F 55.0 °F 49% 29.69 in 10.0 mi South 20.7 mph 33.4 mph N/A   Clear
12:35 PM 74.8 °F 55.0 °F 50% 29.69 in 7.0 mi South 21.9 mph 29.9 mph N/A   Scattered Clouds
12:55 PM 73.9 °F 55.6 °F 53% 29.72 in 7.0 mi SSW 21.9 mph 29.9 mph N/A   Mostly Cloudy
1:15 PM 73.4 °F 55.9 °F 54% 29.68 in 7.0 mi South 18.4 mph 25.3 mph N/A   Mostly Cloudy
1:35 PM 74.1 °F 55.8 °F 53% 29.68 in 10.0 mi South 15.0 mph 24.2 mph N/A   Scattered Clouds
1:55 PM 74.5 °F 56.5 °F 53% 29.68 in 7.0 mi South 18.4 mph 25.3 mph N/A   Clear
2:15 PM 76.1 °F 55.9 °F 50% 29.65 in 7.0 mi SSE 21.9 mph 26.5 mph N/A   Clear
2:35 PM 75.4 °F 55.8 °F 50% 29.63 in 7.0 mi SSE 23.0 mph 28.8 mph N/A   Clear
2:55 PM 75.2 °F 56.3 °F 52% 29.64 in 10.0 mi SSE 21.9 mph 26.5 mph N/A   Clear
3:15 PM 73.9 °F 56.3 °F 54% 29.65 in 7.0 mi South 19.6 mph 27.6 mph N/A   Clear
3:35 PM 73.8 °F 56.3 °F 54% 29.65 in 7.0 mi SSE 21.9 mph 28.8 mph N/A   Clear
3:55 PM 73.2 °F 55.8 °F 54% 29.65 in 10.0 mi South 24.2 mph 33.4 mph N/A   Clear
4:15 PM 71.6 °F 55.8 °F 57% 29.65 in 5.0 mi SSE 24.2 mph 31.1 mph N/A   Haze
4:35 PM 71.1 °F 55.4 °F 58% 29.65 in 10.0 mi South 20.7 mph 29.9 mph N/A   Clear
4:55 PM 70.7 °F 53.8 °F 55% 29.67 in 10.0 mi South 21.9 mph 33.4 mph N/A   Unknown
5:15 PM 70.0 °F 52.9 °F 55% 29.67 in 10.0 mi South 20.7 mph 27.6 mph N/A   Scattered Clouds
5:35 PM 69.1 °F 52.7 °F 56% 29.67 in 10.0 mi South 15.0 mph 23.0 mph N/A   Scattered Clouds
5:55 PM 68.9 °F 52.3 °F 55% 29.65 in 10.0 mi SSE 16.1 mph 21.9 mph N/A   Clear
6:15 PM 68.5 °F 52.2 °F 56% 29.66 in 10.0 mi South 18.4 mph 23.0 mph N/A   Clear
6:35 PM 69.1 °F 51.1 °F 53% 29.65 in 10.0 mi South 23.0 mph 28.8 mph N/A   Scattered Clouds
6:55 PM 69.1 °F 50.0 °F 51% 29.63 in 10.0 mi SSE 23.0 mph 28.8 mph N/A   Scattered Clouds
7:15 PM 69.1 °F 50.0 °F 51% 29.64 in 10.0 mi South 23.0 mph 29.9 mph N/A   Clear
7:35 PM 69.4 °F 49.5 °F 49% 29.63 in 10.0 mi South 24.2 mph 38.0 mph N/A   Clear
7:55 PM 69.3 °F 49.1 °F 49% 29.62 in 10.0 mi South 23.0 mph 33.4 mph N/A   Clear
8:15 PM 69.3 °F 48.7 °F 48% 29.62 in 10.0 mi South 25.3 mph 32.2 mph N/A   Clear
8:35 PM 68.9 °F 48.9 °F 49% 29.62 in 10.0 mi South 20.7 mph 32.2 mph N/A   Clear
8:55 PM 68.9 °F 48.7 °F 49% 29.61 in 10.0 mi South 23.0 mph 33.4 mph N/A   Clear
9:15 PM 68.7 °F 48.2 °F 48% 29.61 in 10.0 mi South 23.0 mph 34.5 mph N/A   Clear
9:35 PM 68.7 °F 48.2 °F 48% 29.61 in 10.0 mi South 25.3 mph 35.7 mph N/A   Clear
10:15 PM 68.2 °F 48.4 °F 49% 29.62 in 10.0 mi South 25.3 mph 32.2 mph N/A   Clear
10:35 PM 68.2 °F 48.2 °F 49% 29.64 in 10.0 mi South 25.3 mph 32.2 mph N/A   Clear
10:55 PM 68.0 °F 48.2 °F 49% 29.64 in 10.0 mi South 20.7 mph 34.5 mph N/A   Clear
11:35 PM 66.7 °F 48.4 °F 52% 29.67 in 10.0 mi South 17.3 mph 27.6 mph N/A   Clear
11:55 PM 66.4 °F 48.4 °F 52% 29.68 in 10.0 mi South 18.4 mph 28.8 mph N/A   Clear